Total_Precipitation_Accumulation
0.80 0.76 0.76 0.70 0.69 0.73 0.78 0.93 1.12 0.93 0.51 0.34 0.36 0.39 0.41 0.47 0.55 0.53 0.48 0.53 0.60 0.69 0.78 0.89 0.96 1.06 1.39 2.09 3.11 3.85 3.77 3.12 2.42 2.08 2.17 2.54 3.09 3.62
0.87 0.84 0.82 0.79 0.76 0.77 0.80 0.82 0.89 0.99 0.75 0.37 0.34 0.39 0.46 0.48 0.57 0.54 0.54 0.62 0.64 0.67 0.73 0.78 0.86 0.99 1.15 1.44 2.07 3.07 3.73 3.67 3.09 2.55 2.40 2.57 2.88 3.42
0.92 0.92 0.88 0.84 0.84 0.80 0.81 0.78 0.76 0.84 0.86 0.45 0.35 0.41 0.52 0.57 0.61 0.61 0.62 0.61 0.59 0.64 0.71 0.76 0.80 0.92 1.06 1.26 1.54 2.18 3.11 3.66 3.69 3.24 2.91 2.79 2.83 3.01
1.06 1.03 0.99 0.97 1.00 0.94 0.89 0.83 0.76 0.75 0.86 0.70 0.44 0.43 0.53 0.64 0.72 0.74 0.71 0.68 0.64 0.72 0.76 0.78 0.80 0.86 1.00 1.17 1.37 1.68 2.31 3.09 3.62 3.62 3.25 2.93 2.79 2.87
1.34 1.31 1.25 1.20 1.21 1.16 1.08 0.96 0.85 0.78 0.80 0.81 0.61 0.50 0.56 0.69 0.85 0.87 0.85 0.80 0.72 0.79 0.83 0.84 0.85 0.86 0.92 1.07 1.26 1.46 1.73 2.15 2.75 3.32 3.52 3.28 2.95 2.86
1.56 1.53 1.55 1.51 1.46 1.40 1.36 1.16 0.99 0.93 0.89 0.91 0.79 0.65 0.64 0.73 0.98 1.09 1.07 0.99 0.92 0.83 0.85 0.87 0.90 0.90 0.90 0.94 1.04 1.20 1.45 1.81 2.25 2.84 3.41 3.54 3.22 2.96
1.38 1.37 1.45 1.59 1.65 1.66 1.65 1.47 1.32 1.29 1.21 1.18 1.05 0.88 0.80 0.89 1.08 1.17 1.24 1.19 1.18 1.02 0.87 0.81 0.82 0.82 0.83 0.89 0.98 1.09 1.28 1.51 1.81 2.29 2.89 3.42 3.48 3.28
1.25 1.19 1.21 1.34 1.42 1.49 1.61 1.62 1.65 1.71 1.66 1.51 1.32 1.14 0.95 0.90 1.03 1.31 1.44 1.53 1.54 1.24 1.07 0.99 0.87 0.88 0.88 0.88 0.93 0.98 1.15 1.39 1.65 1.93 2.34 2.87 3.33 3.46
1.09 1.08 1.08 1.11 1.21 1.14 1.25 1.39 1.50 1.67 1.79 1.75 1.67 1.33 1.09 1.00 1.19 1.44 1.55 1.63 1.54 1.37 1.36 1.42 1.19 1.05 0.99 0.99 1.02 0.97 1.07 1.27 1.50 1.73 2.00 2.37 2.85 3.31
1.12 1.01 0.97 0.97 1.12 1.18 1.22 1.22 1.18 1.30 1.54 1.69 1.76 1.55 1.32 1.28 1.50 1.74 1.88 1.90 1.73 1.62 1.59 1.72 1.43 1.24 1.16 1.11 1.09 1.00 1.01 1.14 1.34 1.53 1.77 2.01 2.38 2.81
1.25 1.16 1.06 0.94 1.18 1.30 1.22 1.14 1.04 1.09 1.24 1.51 1.68 1.69 1.68 1.72 1.87 2.12 2.25 2.30 2.17 1.86 1.72 1.81 1.65 1.44 1.38 1.38 1.28 1.15 1.02 1.05 1.18 1.34 1.49 1.70 1.95 2.33
1.27 1.24 1.31 1.24 1.31 1.27 1.12 1.14 1.16 1.03 1.00 1.09 1.17 1.26 1.28 1.33 1.61 1.84 2.02 2.22 2.19 2.17 1.86 1.81 1.83 1.77 1.92 1.64 1.36 1.13 1.00 1.00 1.05 1.14 1.23 1.37 1.56 1.72
1.30 1.24 1.23 1.36 1.30 1.23 1.16 1.13 1.23 1.08 0.96 1.02 1.04 1.06 1.09 1.17 1.27 1.47 1.72 1.94 2.13 2.12 1.82 1.92 2.15 1.96 2.00 1.87 1.58 1.27 0.99 0.88 0.89 1.02 1.12 1.23 1.32 1.38
1.24 1.11 1.13 1.28 1.27 1.26 1.18 1.22 1.28 1.23 1.12 1.10 1.03 0.98 1.01 1.10 1.18 1.29 1.47 1.63 1.74 1.82 1.70 1.86 2.30 2.16 2.03 1.80 1.62 1.48 1.20 0.96 0.86 0.89 0.96 1.20 1.27 1.33
1.34 1.36 1.32 1.33 1.27 1.15 1.13 1.18 1.20 1.16 1.21 1.17 1.02 0.92 0.92 1.02 1.10 1.22 1.31 1.42 1.52 1.60 1.69 1.77 2.04 2.17 2.15 1.95 1.56 1.42 1.41 1.27 1.00 0.92 0.92 0.96 1.02 1.14
1.42 1.42 1.40 1.39 1.29 1.20 1.19 1.10 1.03 1.09 1.18 1.13 1.02 0.97 0.94 0.99 1.09 1.19 1.31 1.36 1.53 1.58 1.65 1.75 1.91 2.21 2.25 1.83 1.61 1.47 1.29 1.39 1.23 0.96 0.89 0.92 0.94 0.92
1.43 1.44 1.39 1.33 1.31 1.21 1.11 1.06 1.04 1.08 1.12 1.05 1.05 1.09 1.06 1.06 1.09 1.12 1.27 1.37 1.50 1.49 1.61 1.81 1.90 2.07 2.17 2.04 1.89 1.55 1.27 1.17 1.13 0.99 0.92 1.01 1.06 1.01
1.43 1.36 1.20 1.12 1.12 1.08 1.05 1.02 1.01 1.03 0.98 0.99 1.04 1.07 1.09 1.09 1.10 1.11 1.21 1.35 1.42 1.38 1.47 1.69 1.90 2.17 2.32 2.32 2.11 1.71 1.40 1.23 1.16 1.05 0.92 0.99 1.17 1.17
1.20 1.07 0.96 0.97 0.98 0.93 0.91 0.90 0.88 0.86 0.90 0.96 1.00 1.02 1.06 1.09 1.12 1.16 1.21 1.28 1.31 1.32 1.40 1.56 1.86 2.17 2.28 2.29 2.35 1.99 1.64 1.40 1.32 1.29 1.12 0.99 1.09 1.15
0.98 0.96 0.92 0.88 0.88 0.87 0.82 0.81 0.79 0.81 0.89 0.96 0.96 0.95 0.99 1.07 1.10 1.10 1.14 1.22 1.30 1.34 1.40 1.49 1.76 2.06 2.21 2.08 2.14 2.18 2.07 1.70 1.47 1.47 1.34 1.16 1.12 1.28
0.94 0.88 0.87 0.87 0.85 0.82 0.80 0.81 0.83 0.84 0.85 0.92 0.96 0.93 0.94 1.02 1.05 1.01 1.05 1.17 1.29 1.35 1.39 1.40 1.56 1.86 2.02 1.96 1.91 1.91 2.06 2.10 1.74 1.53 1.42 1.41 1.41 1.47
0.91 0.90 0.86 0.87 0.87 0.84 0.84 0.86 0.86 0.84 0.82 0.86 0.88 0.89 0.91 0.97 1.00 0.97 1.01 1.10 1.16 1.21 1.28 1.31 1.41 1.75 2.03 2.08 1.93 1.80 1.93 2.11 2.15 1.86 1.57 1.48 1.63 1.84
0.94 0.94 0.91 0.88 0.84 0.83 0.83 0.83 0.82 0.79 0.77 0.79 0.81 0.82 0.85 0.91 0.91 0.93 0.95 0.99 1.05 1.10 1.19 1.30 1.40 1.64 1.94 2.05 1.99 1.83 1.80 1.89 1.99 2.00 1.99 1.71 1.31 1.16